Flag for Brazil Weather past 2 weeks in Sorocaba, São Paulo, Brazil

Now
72 °F

Passing clouds.


Feels Like: 72 °F
Forecast: N/A
Wind: 16 mph from South

Location: Campinas Aeroporto

Current Time: Feb 28, 2015 at 8:07:14 PM

Latest Report: Feb 28, 2015 at 7:00 PM


Visibility: N/A

Pressure: 30.01 "Hg

Humidity: 78%

Dew point: 64 °F

Location of SorocabaLocation

Historic Weather in Sorocaba — Graph

°F

Sorocaba temperature yesterday

Maximum temperature yesterday: 88 °F (at 3:00 PM)
Minimum temperature yesterday: 66 °F (at 11:00 PM)
Average temperature yesterday: 76 °F

Past Weeks' High & Low Weather Summary

 TemperatureHumidityPressure
High90 °F (Feb 14, 2:00 PM)100% (Feb 15, 9:00 PM)30.18 "Hg (Feb 15, 9:00 PM)
Low37 °F (Feb 19, 5:00 PM)8% (Feb 28, 5:00 AM)29.86 "Hg (Feb 27, 4:00 PM)
Average75 °F74%30.02 "Hg
* Reported Feb 13 8:00 PM — Feb 28 7:00 PM, Sorocaba, Weather by CustomWeather, © 2015

Note: Actual official high and low records may vary slightly from our data, if they occured in-between our weather recording intervals... More about our weather records

Advertising

Sorocaba weather history for previous 24 hours

 ConditionsComfort  
Time TempWeatherWind HumidityBarometerVisibility
7:00 PM
Sat, Feb 28
72 °FPassing clouds.16 mph78%30.01 "HgN/A
6:00 PM73 °FPartly cloudy.16 mph74%30.01 "HgN/A
5:00 PM75 °FBroken clouds.13 mph89%30.01 "HgN/A
4:00 PM72 °FLight rain. Scattered clouds.10 mph94%30.01 "HgN/A
3:00 PM75 °FSprinkles. Broken clouds.21 mph78%N/A2 mi
2:00 PM84 °FPartly sunny.7 mph48%29.98 "HgN/A
1:00 PM82 °FPartly sunny.7 mph55%30.01 "HgN/A
12:00 PM82 °FPartly sunny.9 mph58%30.04 "HgN/A
11:00 AM81 °FScattered clouds.10 mph62%30.04 "HgN/A
10:00 AM77 °FScattered clouds.13 mph69%30.04 "HgN/A
9:00 AM75 °FPartly sunny.12 mph78%30.04 "Hg6 mi
8:00 AM72 °FScattered clouds.7 mph88%30.01 "Hg5 mi
7:00 AM70 °FPartly sunny.6 mph88%30.01 "Hg4 mi
6:00 AM68 °FPartly sunny.8 mph94%29.98 "Hg6 mi
5:00 AM68 °FPassing clouds.5 mph8%29.98 "HgN/A
4:00 AM68 °FPassing clouds.5 mph94%29.98 "HgN/A
3:00 AM68 °FPassing clouds.3 mph94%29.95 "HgN/A
2:00 AM68 °FLight rain. Mostly cloudy.6 mph94%29.98 "HgN/A
1:00 AM68 °FLight rain. Mostly cloudy.7 mph100%30.01 "HgN/A
12:00 AM68 °FThunderstorms. Low clouds.5 mph94%N/AN/A
11:00 PM
Fri, Feb 27
66 °FThunderstorms. Passing clouds.5 mph100%N/A4 mi
10:00 PM68 °FThunderstorms. Fog.7 mph94%30.04 "Hg2 mi
9:00 PM73 °FStrong thunderstorms. Passing clouds.25 mph69%29.98 "Hg1 mi
8:00 PM79 °FThundershowers. Passing clouds.5 mph65%29.92 "HgN/A
Weather by CustomWeather, © 2015

See weather overviewHow to use our weather pages